Concordia, KS

1:57 PM CST on December 05, 2019 (GMT -0600)
Blosser Municipal

Weather History for KCNK - October, 2019

Change the Weather History Date:

Tuesday, October 15, 2019

  Actual Average Record
Temperature  
Mean Temperature 56 °F 56 °F  
Max Temperature 66 °F 68 °F 91 °F (1938)
Min Temperature 44 °F 44 °F 26 °F (2018)
Degree Days  
Heating Degree Days 9 10  
Month to date heating degree days 116  
Since 1 July heating degree days 189  
Cooling Degree Days 0 1  
Month to date cooling degree days 19  
Year to date cooling degree days 1345  
Growing Degree Days 6 (Base 50)    
Moisture  
Dew Point 36 °F    
Average Humidity 49    
Maximum Humidity 87    
Minimum Humidity 19    
Precipitation  
Precipitation 0.00 in 0.06 in 2.84 in (1915)
Month to date precipitation 1.02  
Year to date precipitation 25.03  
Snow  
Snow 0.00 in 0.00 in 0.00 in ()
Month to date snowfall 0.0  
Year to date snowfall 13.7  
Since 1 July snowfall 0.0  
Snow Depth -    
Sea Level Pressure  
Sea Level Pressure 30.02 in    
Wind  
Wind Speed 15 mph (NNW)    
Max Wind Speed 24 mph    
Max Gust Speed 38 mph    
Visibility 10 miles    
Events      
T = Trace of Precipitation, MM = Missing Value Source: NWS Daily Summary

Daily Weather History Graph

Daily Weather History Graph

Search for Another Location

Airport or City:

Astronomy

Oct. 15, 2019 Rise Set
Actual Time 7:40 AM CDT 6:51 PM CDT
Civil Twilight 7:13 AM CDT 7:18 PM CDT
Nautical Twilight 6:42 AM CDT 7:49 PM CDT
Astronomical Twilight 6:10 AM CDT 8:21 PM CDT
Moon 8:12 PM CDT (10/15) 9:12 AM CDT (10/15)
Length of Visible Light 12h 05m
Length of Day
11h 11m
Full, 97% of the Moon is Illuminated
Oct 15
Full
Oct 21
Last Quarter
Oct 27
New
Nov 4
First Quarter
Nov 12
Full

Hourly Weather History & Observations

Time (CDT) Temp. Windchill Dew Point Humidity Pressure Visibility Wind Dir Wind Speed Gust Speed Precip Events Conditions
12:55 AM 62.1 °F - 55.0 °F 78% 29.76 in 10.0 mi SSW 16.1 mph - N/A   Clear
1:55 AM 61.0 °F - 54.0 °F 78% 29.77 in 10.0 mi SSW 17.3 mph - N/A   Clear
2:55 AM 59.0 °F - 53.1 °F 81% 29.78 in 10.0 mi WSW 6.9 mph - N/A   Clear
3:55 AM 55.9 °F - 52.0 °F 87% 29.82 in 6.0 mi NW 10.4 mph - N/A   Clear
4:55 AM 54.0 °F - 45.0 °F 72% 29.87 in 10.0 mi NNW 11.5 mph - N/A   Clear
5:55 AM 51.1 °F - 39.9 °F 66% 29.91 in 10.0 mi North 16.1 mph 25.3 mph N/A   Clear
6:55 AM 50.0 °F - 37.9 °F 63% 29.96 in 10.0 mi NNW 15.0 mph 21.9 mph N/A   Clear
7:55 AM 50.0 °F - 37.9 °F 63% 29.98 in 10.0 mi North 17.3 mph 26.5 mph N/A   Clear
8:55 AM 52.0 °F - 37.9 °F 59% 30.01 in 10.0 mi North 16.1 mph 32.2 mph N/A   Clear
9:55 AM 55.0 °F - 37.0 °F 51% 30.04 in 10.0 mi North 23.0 mph 31.1 mph N/A   Clear
10:55 AM 57.0 °F - 36.0 °F 45% 30.06 in 10.0 mi North 19.6 mph 32.2 mph N/A   Clear
11:55 AM 59.0 °F - 32.0 °F 36% 30.07 in 10.0 mi North 24.2 mph 33.4 mph N/A   Clear
12:55 PM 63.0 °F - 30.9 °F 30% 30.07 in 10.0 mi North 20.7 mph 29.9 mph N/A   Clear
1:55 PM 64.0 °F - 28.9 °F 27% 30.06 in 10.0 mi NNW 24.2 mph 32.2 mph N/A   Clear
2:55 PM 64.9 °F - 28.0 °F 25% 30.05 in 10.0 mi North 21.9 mph 38.0 mph N/A   Clear
3:55 PM 64.9 °F - 28.0 °F 25% 30.05 in 10.0 mi NNW 21.9 mph 33.4 mph N/A   Clear
4:55 PM 64.0 °F - 27.0 °F 25% 30.07 in 10.0 mi North 23.0 mph 31.1 mph N/A   Clear
5:55 PM 61.0 °F - 26.1 °F 26% 30.10 in 10.0 mi NNW 13.8 mph 24.2 mph N/A   Clear
6:55 PM 57.0 °F - 28.0 °F 33% 30.13 in 10.0 mi North 10.4 mph - N/A   Clear
7:55 PM 54.0 °F - 28.9 °F 38% 30.16 in 10.0 mi North 9.2 mph - N/A   Clear
8:55 PM 51.1 °F - 30.0 °F 44% 30.18 in 10.0 mi North 11.5 mph - N/A   Clear
9:55 PM 48.9 °F - 30.9 °F 50% 30.20 in 10.0 mi North 6.9 mph - N/A   Clear
10:55 PM 46.0 °F 43.1 °F 30.9 °F 56% 30.22 in 10.0 mi NW 5.8 mph - N/A   Clear
11:55 PM 44.1 °F 40.1 °F 32.0 °F 63% 30.23 in 10.0 mi NW 6.9 mph - N/A   Clear